Date String (YYYY-MM-DD hh:mm:ss) UTC,Instrument flags,Ambient pressure (hPa),Sample flow (lpm),Bypass flow (lpm),Sample temperature (°C),Ambient temperature (°C),ASC tube jacket temperature (°C),LED temperature (°C),Box temperature (°C),Sample RH (%),Span deviation,Mass concentration (μg/m³),Mass concentration (μg/m³),Mass concentration (μg/m³)
DateTimeUTC,F1_M11,P_M11,Q1_M11,Q2_M11,T1_M11,T2_M11,T3_M11,T4_M11,T5_M11,U1_M11,ZSPAN_M11,X2_M11,X0_M11,X1_M11
2022-05-16 04:00:00,,0829.5,5.00,0.00,29.6,27.5,00.0,38.6,31.3,14.5,0000.0,0003.14,0009.56,0001.50
2022-05-16 04:01:00,,0829.5,5.01,0.00,29.6,27.7,00.0,38.6,31.4,14.5,0000.0,0003.11,0009.22,0001.50
2022-05-16 04:02:00,,0829.5,5.00,0.00,29.6,27.9,00.0,38.6,31.4,14.5,0000.0,0003.12,0009.03,0001.49
2022-05-16 04:03:00,,0829.5,4.99,0.00,29.6,28.1,00.0,38.6,31.4,14.5,0000.0,0003.13,0008.29,0001.50
2022-05-16 04:04:00,,0829.6,5.01,0.00,29.7,28.2,00.0,38.6,31.5,14.4,0000.0,0003.13,0008.51,0001.48
2022-05-16 04:05:00,,0829.5,5.00,0.00,29.7,28.4,00.0,38.6,31.5,14.5,0000.0,0003.04,0009.35,0001.47
2022-05-16 04:06:00,,0829.5,4.98,0.00,29.7,28.5,00.0,38.6,31.5,14.5,0000.0,0003.10,0009.87,0001.46
2022-05-16 04:07:00,,0829.5,5.00,0.00,29.7,28.6,00.0,38.6,31.6,14.5,0000.0,0003.11,0009.98,0001.46
2022-05-16 04:08:00,,0829.5,5.01,0.00,29.8,28.6,00.0,38.6,31.6,14.5,0000.0,0003.03,0009.70,0001.47
2022-05-16 04:09:00,,0829.5,5.01,0.00,29.8,28.7,00.0,38.6,31.6,14.5,0000.0,0002.99,0009.67,0001.46
2022-05-16 04:10:00,,0829.5,4.99,0.00,29.8,28.8,00.0,38.6,31.7,14.4,0000.0,0002.88,0009.82,0001.47
2022-05-16 04:11:00,,0829.5,5.00,0.00,29.9,28.9,00.0,38.6,31.7,14.4,0000.0,0002.84,0010.04,0001.46
2022-05-16 04:12:00,,0829.5,5.00,0.00,29.9,29.0,00.0,38.7,31.7,14.4,0000.0,0002.94,0010.60,0001.46
2022-05-16 04:13:00,,0829.5,5.01,0.00,29.9,29.0,00.0,38.7,31.7,14.3,0000.0,0003.01,0010.83,0001.47
2022-05-16 04:14:00,,0829.5,4.99,0.00,29.9,29.0,00.0,38.7,31.8,14.2,0000.0,0002.99,0010.60,0001.48
2022-05-16 04:15:00,,0829.5,5.00,0.00,30.0,29.1,00.0,38.7,31.8,14.2,0000.0,0003.02,0010.40,0001.50
2022-05-16 04:16:00,,0829.6,4.99,0.00,30.0,29.1,00.0,38.8,31.8,14.1,0000.0,0003.01,0010.25,0001.51
2022-05-16 04:17:00,,0829.5,5.01,0.00,30.0,28.4,00.0,38.8,31.7,14.1,0000.0,0002.95,0009.70,0001.50
2022-05-16 04:18:00,,0829.5,5.01,0.00,29.9,25.7,00.0,38.8,31.1,14.3,0000.0,0002.90,0009.56,0001.49
2022-05-16 04:19:00,,0829.5,5.00,0.00,29.7,24.6,00.0,38.7,30.8,14.4,0000.0,0003.00,0010.05,0001.48
2022-05-16 04:20:00,,0829.5,4.99,0.00,29.6,25.0,00.0,38.7,30.9,14.5,0000.0,0003.01,0010.56,0001.47
2022-05-16 04:21:00,,0829.5,5.01,0.00,29.5,25.5,00.0,38.6,31.0,14.5,0000.0,0003.07,0010.44,0001.46
2022-05-16 04:22:00,,0829.5,4.99,0.00,29.4,26.1,00.0,38.5,31.0,14.6,0000.0,0003.11,0010.20,0001.45
2022-05-16 04:23:00,,0829.5,5.01,0.00,29.4,26.6,00.0,38.5,31.1,14.6,0000.0,0003.13,0009.75,0001.45
2022-05-16 04:24:00,,0829.5,5.00,0.00,29.4,27.0,00.0,38.5,31.1,14.6,0000.0,0003.14,0009.85,0001.45
2022-05-16 04:25:00,,0829.5,5.00,0.00,29.5,27.4,00.0,38.5,31.2,14.5,0000.0,0003.11,0010.36,0001.45
2022-05-16 04:26:00,,0829.5,5.00,0.00,29.5,27.7,00.0,38.5,31.2,14.5,0000.0,0003.10,0010.28,0001.44
2022-05-16 04:27:00,,0829.5,5.00,0.00,29.5,27.9,00.0,38.4,31.3,14.5,0000.0,0003.08,0009.52,0001.43
2022-05-16 04:28:00,,0829.5,5.00,0.00,29.5,28.1,00.0,38.4,31.3,14.4,0000.0,0003.08,0010.34,0001.43
2022-05-16 04:29:00,,0829.5,5.01,0.00,29.6,28.3,00.0,38.4,31.4,14.4,0000.0,0003.08,0011.13,0001.43
2022-05-16 04:30:00,,0829.5,5.00,0.00,29.6,28.4,00.0,38.5,31.4,14.4,0000.0,0003.05,0011.39,0001.42
2022-05-16 04:31:00,,0829.5,4.99,0.00,29.6,28.5,00.0,38.5,31.4,14.4,0000.0,0003.10,0011.33,0001.44
2022-05-16 04:32:00,,0829.5,5.01,0.00,29.6,28.6,00.0,38.5,31.5,14.3,0000.0,0003.14,0011.42,0001.45
2022-05-16 04:33:00,,0829.5,5.00,0.00,29.7,28.6,00.0,38.5,31.5,14.3,0000.0,0003.13,0011.82,0001.46
2022-05-16 04:34:00,,0829.5,5.00,0.00,29.7,28.7,00.0,38.5,31.5,14.3,0000.0,0003.07,0011.60,0001.45
2022-05-16 04:35:00,,0829.5,4.98,0.00,29.7,28.8,00.0,38.5,31.6,14.3,0000.0,0002.94,0011.79,0001.46
2022-05-16 04:36:00,,0829.5,5.01,0.00,29.8,28.8,00.0,38.6,31.6,14.3,0000.0,0003.01,0011.79,0001.46
2022-05-16 04:37:00,,0829.5,5.00,0.00,29.8,28.9,00.0,38.6,31.7,14.3,0000.0,0003.04,0011.91,0001.46
2022-05-16 04:38:00,,0829.5,4.99,0.00,29.8,28.9,00.0,38.6,31.7,14.3,0000.0,0003.06,0012.04,0001.47
2022-05-16 04:39:00,,0829.5,5.00,0.00,29.9,29.0,00.0,38.6,31.7,14.3,0000.0,0003.08,0011.24,0001.48
2022-05-16 04:40:00,,0829.5,5.00,0.00,29.9,29.0,00.0,38.7,31.7,14.3,0000.0,0003.13,0011.24,0001.49
2022-05-16 04:41:00,,0829.5,5.00,0.00,29.9,29.0,00.0,38.7,31.8,14.3,0000.0,0003.15,0012.09,0001.49
2022-05-16 04:42:00,,0829.5,5.00,0.00,29.9,29.0,00.0,38.7,31.8,14.2,0000.0,0003.14,0011.72,0001.49
2022-05-16 04:43:00,,0829.5,5.00,0.00,30.0,29.0,00.0,38.7,31.8,14.2,0000.0,0003.17,0011.70,0001.49
2022-05-16 04:44:00,,0829.5,5.00,0.00,30.0,29.0,00.0,38.8,31.8,14.2,0000.0,0003.19,0011.50,0001.49
2022-05-16 04:45:00,,0829.5,5.00,0.00,30.0,29.1,00.0,38.8,31.9,14.2,0000.0,0003.25,0011.97,0001.49
2022-05-16 04:46:00,,0829.4,5.00,0.00,30.0,29.1,00.0,38.8,31.9,14.2,0000.0,0003.30,0011.39,0001.50
2022-05-16 04:47:00,,0829.4,5.00,0.00,30.1,29.1,00.0,38.8,31.9,14.1,0000.0,0003.29,0010.75,0001.50
2022-05-16 04:48:00,,0829.4,5.00,0.00,30.1,29.1,00.0,38.9,31.9,14.1,0000.0,0003.28,0011.03,0001.50
2022-05-16 04:49:00,,0829.3,5.00,0.00,30.1,29.2,00.0,38.9,31.9,14.2,0000.0,0003.33,0011.63,0001.51
2022-05-16 04:50:00,,0829.4,5.00,0.00,30.1,29.2,00.0,38.9,32.0,14.3,0000.0,0003.37,0011.97,0001.52
2022-05-16 04:51:00,,0829.4,5.00,0.00,30.1,28.8,00.0,38.9,31.8,14.5,0000.0,0003.36,0011.39,0001.53
2022-05-16 04:52:00,,0829.4,5.01,0.00,30.0,26.4,00.0,38.9,31.3,14.5,0000.0,0003.37,0010.23,0001.55
2022-05-16 04:53:00,,0829.4,5.00,0.00,29.9,25.7,00.0,38.9,31.3,14.5,0000.0,0003.37,0010.15,0001.58
2022-05-16 04:54:00,,0829.4,5.01,0.00,29.8,26.0,00.0,38.8,31.3,14.6,0000.0,0003.32,0010.35,0001.59
2022-05-16 04:55:00,,0829.4,4.99,0.00,29.7,26.5,00.0,38.8,31.3,14.8,0000.0,0003.30,0011.00,0001.60
2022-05-16 04:56:00,,0829.3,5.02,0.00,29.7,26.9,00.0,38.7,31.3,15.0,0000.0,0003.24,0010.20,0001.61
2022-05-16 04:57:00,,0829.3,4.98,0.00,29.7,27.3,00.0,38.7,31.3,15.0,0000.0,0003.19,0010.13,0001.61
2022-05-16 04:58:00,,0829.4,5.00,0.00,29.7,27.6,00.0,38.7,31.4,15.0,0000.0,0003.17,0011.13,0001.62
2022-05-16 04:59:00,,0829.2,5.01,0.00,29.7,27.8,00.0,38.7,31.4,14.9,0000.0,0003.16,0010.87,0001.63
